Location: Ch�risy
(50.2331°N, 2.9131°E)
Time: 23:22:40
(UTC+00:00)

NOSS 3-1 (A) - Pass Details

Date: 17 January 2021
Orbit: 735 x 1477 km, 63.4° (Epoch: 26 February)

Event Time Altitude Azimuth Distance (km) Brightness Sun altitude
Rises 20:17:40 0° 316° (NW) 3,870 7.3 -37.7°
Reaches altitude 10° 20:20:09 10° 316° (NW) 3,010 6.6 -38.1°
Enters shadow 20:25:22 53° 314° (NW) 1,484 4.5 -38.9°
